When you browse on this site, cookies collect data to enhance your experience and personalize the content and advertising you see.
Visit our Privacy Policy to learn more. By continuing to use the site, you agree to this use of cookies and data.
  • Em Portugal
  • Lista de países
  • Para 7 dias
  • Temperatura da água
  • Mapa do tempo
  • Widgets de tempo
  • user-avatar
    Iniciar Sessão

    Previsão horária em Vrush

    Hoje, 21 Agosto, Quarta-feira

    Tempo Temperatura Precipitação Vento Pressão Humidade
    00:00 +15°C° 0 mm 1 m/s 611 mmHg 64%
    01:00 +15°C° 0 mm 1 m/s 611 mmHg 65%
    02:00 +15°C° 0 mm 1 m/s 611 mmHg 65%
    03:00 +14°C° 0 mm 1 m/s 611 mmHg 65%
    04:00 +15°C° 0 mm 1 m/s 611 mmHg 63%
    05:00 +15°C° 0 mm 1 m/s 611 mmHg 61%
    06:00 +16°C° 0 mm 1 m/s 611 mmHg 59%
    07:00 +19°C° 0 mm 1 m/s 612 mmHg 52%
    08:00 +22°C° 0 mm 1 m/s 613 mmHg 45%
    09:00 +24°C° 0 mm 1 m/s 614 mmHg 38%
    10:00 +25°C° 0 mm 2 m/s 614 mmHg 38%
    11:00 +26°C° 0 mm 2 m/s 614 mmHg 37%
    12:00 +26°C° 0 mm 2 m/s 614 mmHg 37%
    13:00 +26°C° 0 mm 3 m/s 614 mmHg 39%
    14:00 +26°C° 0 mm 3 m/s 613 mmHg 40%
    15:00 +25°C° 0 mm 3 m/s 613 mmHg 42%
    16:00 +24°C° 0 mm 2 m/s 612 mmHg 47%
    17:00 +23°C° 0 mm 2 m/s 611 mmHg 51%
    18:00 +21°C° 0 mm 1 m/s 611 mmHg 56%
    19:00 +20°C° 0 mm 1 m/s 610 mmHg 58%
    20:00 +18°C° 0 mm 1 m/s 610 mmHg 60%
    21:00 +16°C° 0 mm 1 m/s 609 mmHg 62%
    22:00 +16°C° 0 mm 1 m/s 609 mmHg 63%
    23:00 +15°C° 0 mm 1 m/s 609 mmHg 64%

    Amanhã, 22 Agosto, Quinta-feira

    Tempo Temperatura Precipitação Vento Pressão Humidade
    00:00 +15°C° 0 mm 1 m/s 609 mmHg 65%
    01:00 +15°C° 0 mm 1 m/s 609 mmHg 65%
    02:00 +15°C° 0 mm 1 m/s 608 mmHg 65%
    03:00 +15°C° 0 mm 1 m/s 608 mmHg 66%
    04:00 +15°C° 0 mm 1 m/s 608 mmHg 65%
    05:00 +16°C° 0 mm 1 m/s 609 mmHg 64%
    06:00 +16°C° 0 mm 1 m/s 609 mmHg 63%
    07:00 +19°C° 0 mm 1 m/s 610 mmHg 55%
    08:00 +22°C° 0 mm 1 m/s 611 mmHg 47%
    09:00 +24°C° 0 mm 1 m/s 612 mmHg 39%
    10:00 +25°C° 0 mm 2 m/s 612 mmHg 39%
    11:00 +25°C° 0 mm 2 m/s 612 mmHg 39%
    12:00 +26°C° 0 mm 3 m/s 612 mmHg 38%
    13:00 +26°C° 0 mm 3 m/s 611 mmHg 38%
    14:00 +26°C° 0 mm 3 m/s 611 mmHg 38%
    15:00 +25°C° 0 mm 3 m/s 611 mmHg 38%
    16:00 +24°C° 0 mm 2 m/s 610 mmHg 43%
    17:00 +23°C° 0 mm 2 m/s 610 mmHg 48%
    18:00 +22°C° 0 mm 1 m/s 609 mmHg 53%
    19:00 +20°C° 0 mm 1 m/s 609 mmHg 55%
    20:00 +18°C° 0 mm 1 m/s 609 mmHg 57%
    21:00 +16°C° 0 mm 1 m/s 608 mmHg 59%
    22:00 +15°C° 0 mm 1 m/s 608 mmHg 59%
    23:00 +15°C° 0 mm 1 m/s 608 mmHg 59%

    Depois de amanhã, 23 Agosto, Sexta-feira

    Tempo Temperatura Precipitação Vento Pressão Humidade
    00:00 +15°C° 0 mm 1 m/s 608 mmHg 59%
    01:00 +15°C° 0 mm 1 m/s 608 mmHg 59%
    02:00 +14°C° 0 mm 1 m/s 608 mmHg 59%
    03:00 +14°C° 0 mm 1 m/s 608 mmHg 59%
    04:00 +15°C° 0 mm 1 m/s 608 mmHg 59%
    05:00 +15°C° 0 mm 1 m/s 608 mmHg 58%
    06:00 +16°C° 0 mm 1 m/s 609 mmHg 58%
    07:00 +19°C° 0 mm 1 m/s 610 mmHg 51%
    08:00 +21°C° 0 mm 1 m/s 611 mmHg 43%
    09:00 +23°C° 0 mm 2 m/s 612 mmHg 36%
    10:00 +24°C° 0 mm 2 m/s 612 mmHg 35%
    11:00 +25°C° 0 mm 3 m/s 612 mmHg 34%
    12:00 +26°C° 0 mm 3 m/s 612 mmHg 34%
    13:00 +26°C° 0 mm 3 m/s 612 mmHg 34%
    14:00 +26°C° 0 mm 3 m/s 612 mmHg 35%
    15:00 +26°C° 0 mm 3 m/s 611 mmHg 36%
    16:00 +24°C° 0 mm 2 m/s 611 mmHg 42%
    17:00 +23°C° 0 mm 2 m/s 610 mmHg 48%
    18:00 +21°C° 0 mm 1 m/s 610 mmHg 54%
    19:00 +20°C° 0 mm 1 m/s 609 mmHg 56%
    20:00 +18°C° 0 mm 1 m/s 609 mmHg 58%
    21:00 +16°C° 0 mm 1 m/s 609 mmHg 60%
    22:00 +15°C° 0 mm 1 m/s 609 mmHg 60%
    23:00 +15°C° 0 mm 1 m/s 609 mmHg 60%

    24 Agosto, Sábado

    Tempo Temperatura Precipitação Vento Pressão Humidade
    00:00 +15°C° 0 mm 1 m/s 608 mmHg 60%
    01:00 +15°C° 0 mm 1 m/s 608 mmHg 60%
    02:00 +15°C° 0 mm 1 m/s 608 mmHg 60%
    03:00 +14°C° 0 mm 1 m/s 608 mmHg 61%
    04:00 +15°C° 0 mm 1 m/s 608 mmHg 59%
    05:00 +15°C° 0 mm 1 m/s 609 mmHg 57%
    06:00 +16°C° 0 mm 1 m/s 609 mmHg 56%
    07:00 +19°C° 0 mm 1 m/s 610 mmHg 48%
    08:00 +21°C° 0 mm 1 m/s 611 mmHg 40%
    09:00 +24°C° 0 mm 2 m/s 612 mmHg 32%
    10:00 +24°C° 0 mm 2 m/s 612 mmHg 33%
    11:00 +25°C° 0 mm 3 m/s 612 mmHg 33%
    12:00 +26°C° 0 mm 4 m/s 613 mmHg 34%
    13:00 +25°C° 0.1 mm 3 m/s 612 mmHg 35%
    14:00 +25°C° 0.1 mm 2 m/s 612 mmHg 37%
    15:00 +25°C° 0.1 mm 2 m/s 612 mmHg 38%
    16:00 +23°C° 0.1 mm 2 m/s 611 mmHg 45%
    17:00 +22°C° 0.1 mm 1 m/s 611 mmHg 51%
    18:00 +20°C° 0.1 mm 1 m/s 610 mmHg 57%
    19:00 +19°C° 0 mm 1 m/s 610 mmHg 59%
    20:00 +18°C° 0 mm 1 m/s 610 mmHg 61%
    21:00 +15°C° 0 mm 1 m/s 610 mmHg 63%
    22:00 +15°C° 0 mm 1 m/s 610 mmHg 62%
    23:00 +15°C° 0 mm 1 m/s 610 mmHg 62%

    25 Agosto, Domingo

    Tempo Temperatura Precipitação Vento Pressão Humidade
    00:00 +14°C° 0 mm 1 m/s 610 mmHg 62%
    01:00 +15°C° 0.1 mm 1 m/s 610 mmHg 64%
    02:00 +15°C° 0.1 mm 1 m/s 610 mmHg 66%
    03:00 +15°C° 0.1 mm 2 m/s 610 mmHg 68%
    04:00 +15°C° 0.1 mm 1 m/s 610 mmHg 70%
    05:00 +15°C° 0.1 mm 1 m/s 610 mmHg 72%
    06:00 +15°C° 0.1 mm 1 m/s 610 mmHg 73%
    07:00 +18°C° 0 mm 1 m/s 611 mmHg 67%
    08:00 +18°C° 0 mm 2 m/s 611 mmHg 60%
    09:00 +20°C° 0 mm 2 m/s 612 mmHg 53%
    10:00 +20°C° 0.3 mm 2 m/s 612 mmHg 51%
    11:00 +21°C° 0.3 mm 3 m/s 612 mmHg 48%
    12:00 +22°C° 0.3 mm 3 m/s 612 mmHg 46%
    13:00 +22°C° 0.2 mm 3 m/s 612 mmHg 45%
    14:00 +22°C° 0.2 mm 3 m/s 612 mmHg 43%
    15:00 +22°C° 0.2 mm 3 m/s 612 mmHg 42%
    16:00 +21°C° 0 mm 2 m/s 611 mmHg 46%
    17:00 +19°C° 0 mm 2 m/s 611 mmHg 50%
    18:00 +18°C° 0 mm 2 m/s 610 mmHg 54%
    19:00 +18°C° 0 mm 1 m/s 610 mmHg 55%
    20:00 +15°C° 0 mm 1 m/s 609 mmHg 55%
    21:00 +14°C° 0 mm 1 m/s 609 mmHg 56%
    22:00 +14°C° 0 mm 1 m/s 609 mmHg 55%
    23:00 +13°C° 0 mm 1 m/s 609 mmHg 54%

    26 Agosto, Segunda-feira

    Tempo Temperatura Precipitação Vento Pressão Humidade
    00:00 +13°C° 0 mm 1 m/s 609 mmHg 53%
    01:00 +13°C° 0 mm 1 m/s 609 mmHg 52%
    02:00 +13°C° 0 mm 1 m/s 609 mmHg 51%
    03:00 +13°C° 0 mm 1 m/s 608 mmHg 51%
    04:00 +13°C° 0 mm 1 m/s 609 mmHg 53%
    05:00 +14°C° 0 mm 1 m/s 609 mmHg 55%
    06:00 +14°C° 0 mm 1 m/s 609 mmHg 57%
    07:00 +16°C° 0 mm 1 m/s 610 mmHg 52%
    08:00 +19°C° 0 mm 1 m/s 611 mmHg 47%
    09:00 +21°C° 0 mm 1 m/s 612 mmHg 42%
    10:00 +21°C° 0.1 mm 2 m/s 612 mmHg 42%
    11:00 +23°C° 0.1 mm 2 m/s 613 mmHg 42%
    12:00 +24°C° 0.1 mm 2 m/s 613 mmHg 41%
    13:00 +23°C° 0.3 mm 2 m/s 612 mmHg 44%
    14:00 +23°C° 0.3 mm 2 m/s 612 mmHg 47%
    15:00 +21°C° 0.3 mm 2 m/s 612 mmHg 49%
    16:00 +20°C° 0.2 mm 2 m/s 611 mmHg 55%
    17:00 +20°C° 0.2 mm 1 m/s 611 mmHg 60%
    18:00 +18°C° 0.2 mm 1 m/s 611 mmHg 66%
    19:00 +16°C° 0.1 mm 1 m/s 611 mmHg 69%
    20:00 +15°C° 0.1 mm 1 m/s 611 mmHg 72%
    21:00 +14°C° 0.1 mm 1 m/s 611 mmHg 75%
    22:00 +14°C° 0 mm 1 m/s 611 mmHg 75%
    23:00 +14°C° 0 mm 1 m/s 611 mmHg 75%
    Mostrar mais